User: anonymous   Login
Location: Quaker Farms
(41.4276°N, 73.1557°W)
Time: 16:59:22
(UTC+00:00)
Language:

CZ-2C R/B - Orbit

View from above orbital plane
View from above orbital plane
View from above satellite
View from above satellite

Ground track
Ground track

The orbit data is extracted from the following two-line orbital elements,

1 39625U 14014B   21296.79637279  .00001871  00000-0  12394-3 0  9994
2 39625  98.3313 216.9428 0137013 274.2286  84.3289 15.01451572413904
Epoch (UTC): 23 October 2021 19:06:46
Eccentricity: 0.0137013
inclination: 98.3313°
perigee height: 467 km
apogee height: 657 km
right ascension of ascending node: 216.9428°
argument of perigee: 274.2286°
revolutions per day: 15.01451572
mean anomaly at epoch: 84.3289°
orbit number at epoch: 41390

The dashed part of the orbit path shows where the satellite is in the earth's shadow,  

DLR